Flag for U.S.A. Weather past 2 weeks in Bristol, Tennessee, U.S.A.

Now
62 °F

Passing clouds.


Feels Like: 62 °F
Forecast: 60 / 77 °F
Wind: No wind

Location: Abingdon-Southwest Abingdon

Current Time: Jun 3, 2015 at 2:01:45 AM

Latest Report: Jun 3, 2015 at 1:15 AM


Visibility: 10 mi

Pressure: 30.06 "Hg

Humidity: 100%

Dew point: 62 °F

Location of BristolLocation

Historic Weather in Bristol — Graph

°F

Bristol temperature yesterday

Maximum temperature yesterday: 73 °F (at 1:55 PM)
Minimum temperature yesterday: 60 °F (at 10:35 PM)
Average temperature yesterday: 65 °F

Past Weeks' High & Low Weather Summary

 TemperatureHumidityPressure
High86 °F (May 28, 2:55 PM)100% (May 19, 2:15 AM)30.45 "Hg (May 19, 2:15 AM)
Low43 °F (May 22, 6:15 AM)25% (May 23, 5:55 PM)29.89 "Hg (May 21, 3:35 AM)
Average69 °F69%30.19 "Hg
* Reported May 19 12:15 AM — Jun 3 12:55 AM, Bristol, Weather by CustomWeather, © 2015

Note: Actual official high and low records may vary slightly from our data, if they occured in-between our weather recording intervals... More about our weather records

Advertising

Bristol weather history for previous 24 hours

 ConditionsComfort  
Time TempWeatherWind HumidityBarometerVisibility
12:55 AM
Wed, Jun 3
62 °FLow clouds.3 mph100%30.06 "Hg10 mi
12:35 AM62 °FPassing clouds.5 mph100%30.07 "Hg10 mi
12:15 AM62 °FPassing clouds.No wind100%30.07 "Hg10 mi
11:15 PM
Tue, Jun 2
62 °FFog.6 mph100%30.06 "Hg1 mi
10:55 PM61 °FFog.6 mph100%30.06 "Hg1 mi
10:35 PM60 °FFog.3 mph100%30.06 "Hg1 mi
10:15 PM60 °FFog.No wind100%30.06 "Hg1 mi
9:55 PM61 °FFog.No wind100%30.06 "Hg2 mi
9:15 PM63 °FSunny.No wind98%30.05 "Hg7 mi
8:55 PM63 °FFog.No wind97%30.05 "Hg5 mi
8:35 PM64 °FSunny.No wind96%30.04 "Hg10 mi
8:15 PM64 °FSunny.No wind96%30.03 "Hg10 mi
7:55 PM64 °FSunny.No wind92%30.05 "Hg10 mi
7:35 PM65 °FSunny.No wind90%30.03 "Hg10 mi
7:15 PM65 °FScattered clouds.No wind89%30.03 "Hg10 mi
6:55 PM65 °FScattered clouds.No wind91%30.04 "Hg10 mi
6:35 PM65 °FSunny.7 mph91%30.01 "Hg10 mi
6:15 PM65 °FScattered clouds.9 mph93%30.01 "Hg10 mi
5:55 PM65 °FLight rain. More clouds than sun.7 mph89%30.04 "Hg10 mi
5:15 PM62 °FLight rain. Overcast.3 mph95%30.06 "Hg7 mi
4:55 PM62 °FLight rain. Cloudy.6 mph93%30.08 "Hg7 mi
4:15 PM65 °FLight rain. Mostly cloudy.10 mph96%30.08 "Hg10 mi
3:55 PM66 °FRain. More clouds than sun.No wind94%30.06 "Hg5 mi
3:35 PM67 °FRain. More clouds than sun.3 mph94%30.06 "Hg10 mi
3:15 PM68 °FThunderstorms. More clouds than sun.No wind88%30.06 "Hg10 mi
2:55 PM67 °FThundershowers. More clouds than sun.No wind88%30.04 "Hg10 mi
2:15 PM71 °FMostly cloudy.7 mph70%30.05 "Hg10 mi
1:55 PM73 °FCloudy.No wind68%30.06 "Hg10 mi
1:15 PM72 °FMostly cloudy.No wind71%30.07 "Hg10 mi
12:55 PM73 °FBroken clouds.No wind69%30.07 "Hg10 mi
12:15 PM70 °FThundershowers. Cloudy.No wind77%30.09 "Hg10 mi
11:55 AM71 °FBroken clouds.3 mph76%30.09 "Hg10 mi
11:15 AM70 °FLight rain. Overcast.No wind77%30.09 "Hg10 mi
10:55 AM71 °FMore clouds than sun.No wind75%30.10 "Hg10 mi
10:15 AM69 °FMore clouds than sun.No wind82%30.10 "Hg10 mi
9:55 AM68 °FMore clouds than sun.No wind84%30.10 "Hg10 mi
9:15 AM66 °FOvercast.No wind95%30.09 "Hg10 mi
8:55 AM65 °FMore clouds than sun.No wind100%30.10 "Hg10 mi
8:15 AM63 °FFog.No wind100%30.09 "Hg1 mi
7:55 AM63 °FFog.No wind100%30.09 "Hg1 mi
7:15 AM61 °FScattered clouds.No wind100%30.07 "Hg7 mi
6:55 AM61 °FPartly cloudy.No wind100%30.07 "Hg7 mi
6:15 AM62 °FPassing clouds.No wind100%30.06 "Hg7 mi
5:55 AM63 °FPassing clouds.No wind99%30.06 "Hg7 mi
5:15 AM63 °FMostly cloudy.No wind100%30.06 "Hg10 mi
4:55 AM63 °FLow clouds.No wind100%30.06 "Hg10 mi
4:15 AM62 °FPassing clouds.No wind100%30.06 "Hg10 mi
3:55 AM63 °FPassing clouds.No wind100%30.05 "Hg10 mi
3:15 AM63 °FClear.No wind100%30.05 "Hg10 mi
2:55 AM63 °FClear.No wind100%30.06 "Hg10 mi
2:15 AM63 °FClear.No wind100%30.06 "Hg10 mi
Weather by CustomWeather, © 2015

See weather overviewHow to use our weather pages